Regional Weather Roundup
Issued by NWS

Home | Current Version | Previous Version | Graphics & Text | Print | Product List | Glossary On
Versions: 1 2 3 4 5 6 7 8 9 10 11 12 13 14 15 16 17 18 19 20 21 22 23 24 25 26 27 28 29 30 31 32 33 34 35 36 37 38 39 40 41 42 43 44 45 46 47 48 49 50
000
ASUS45 KTFX 312219
RWRMT
MONTANA HOURLY WEATHER ROUNDUP
NATIONAL WEATHER SERVICE GREAT FALLS MT
419 PM MDT SUN AUG 31 2014

NOTE: "FAIR" INDICATES FEW OR NO CLOUDS BELOW 12000 FEET WITH NO
SIGNIFICANT WEATHER AND/OR OBSTRUCTIONS TO VISIBILITY.

* THESE STATIONS ARE NOT UNDER NWS QUALITY CONTROL. THEY DO NOT
   REPORT WEATHER SUCH AS PRECIPITATION OR FOG.

MTZ001>007-043-312300-
WEST OF THE DIVIDE
CITY           SKY/WX    TMP DP  RH WIND       PRES   REMARKS
KALISPELL      CLOUDY    64  43  47 SW16G23   29.90F
MISSOULA       PTSUNNY   70  39  32 SW20      29.96F
BUTTE          PTCLDY    61  37  41 NW9       29.99S
MULLAN PASS    CLOUDY    45  43  93 CALM      30.05S
* LINCOLN      N/A       61  43  52 W6G19      N/A
* LOOKOUT PASS N/A       53  44  72 E2         N/A
* POLSON       N/A       56  51  83 S2G7       N/A
* RONAN APT    CLOUDY    57  52  83 N/A        N/A
* SEELEY LAKE  N/A       59  45  60 NW4G16     N/A
* THOMP F APT  PTSUNNY   52  46  80 NE1G10     N/A
$$

MTZ008-052>055-312300-
SOUTHWEST MONTANA
CITY           SKY/WX    TMP DP  RH WIND       PRES   REMARKS
BOZEMAN        PTCLDY    64  48  56 N17       29.93S
DILLON         SUNNY     66  37  34 SW14G21   29.97S
W YELLOWSTONE  CLOUDY    54  45  72 S14G21    30.05F
* THREE FORKS  PTCLDY    61  30  31 N/A        N/A
* BOULDER HILL N/A       61  35  38 SE2G7      N/A
* MONIDA PASS  N/A       56  40  55 SW9G14     N/A
* RAYNOLDS PAS N/A       57  38  49 S9G14      N/A
* WHITEHALL    N/A       71  45  39 SW10G17    N/A
* WISE RIVER   N/A       62  36  38 NW14G26    N/A
$$

MTZ009>010-012-014-046-048-049-054-312300-
EAST SLOPES AND CENTRAL MONTANA
CITY           SKY/WX    TMP DP  RH WIND       PRES   REMARKS
CUT BANK       CLOUDY    64  39  40 W22       29.86R
GREAT FALLS    PTSUNNY   66  37  34 W17G23    29.85S
HELENA         PTSUNNY   70  41  35 NW15      29.90F
MALMSTROM AFB  PTSUNNY   68  34  28 NW16G22   29.86F
* CONRAD       PTSUNNY   70  41  35 W15G22     N/A
* EAST GLACIER N/A       57  37  47 W17G24     N/A
* MONARCH      N/A       54  32  43 NW20G25    N/A
* PENDROY      N/A       65  39  39 W12G24     N/A
* ROGERS PASS  N/A       56  40  55 SE16G22    N/A
* SAINT MARY   N/A       56  44  64 SW5G15     N/A
* SWEET GRASS  N/A       66  33  29 NW14G20    N/A
* WHITE SULPH  N/A       65  40  40 SW5G12     N/A
$$

MTZ011-013-016-021-035-040-045-047-050-051-312300-
NORTH CENTRAL MONTANA
CITY           SKY/WX    TMP DP  RH WIND       PRES   REMARKS
HAVRE          PTSUNNY   75  36  24 W18G25    29.76S
LEWISTOWN      CLOUDY    64  43  47 W12       29.88R
* CHINOOK      PTCLDY    73  41  32 W12G20    29.75F
* FORT BENTON  PTSUNNY   73  34  24 W14G25    29.81S
* CHESTER      N/A       70  32  25 NW13G26    N/A
* DENTON       N/A       71  39  31 SW12G21    N/A
* GEYSER       N/A       60  35  39 NW24G37    N/A
* JUDITH GAP   N/A       58  46  65 NE8        N/A
$$

MTZ017>020-022>027-061-062-312300-
NORTHEAST MONTANA
CITY           SKY/WX    TMP DP  RH WIND       PRES   REMARKS
GLASGOW        CLOUDY    73  43  34 W15G24    29.72S
GLENDIVE       CLOUDY    72  46  40 W17G22    29.75R
JORDAN         CLOUDY    73  41  32 W18       29.77F
SIDNEY         PTSUNNY  N/A N/A N/A W7        29.70S
WOLF POINT     PTSUNNY   73  48  41 W13G23    29.71F
* BEAVER HILL  N/A       69  48  47 W8         N/A
* CIRCLE       N/A       73  47  40 W11G19     N/A
* LINDSAY DVD  N/A       71  44  38 W18G26     N/A
* NAVAJO       N/A       63  48  58 N11G16     N/A
$$

MTZ028>042-056>058-312300-
SOUTHCENTRAL AND SOUTHEAST MONTANA
CITY           SKY/WX    TMP DP  RH WIND       PRES   REMARKS
BAKER          TSTM      72  55  55 NW9       29.76R
BILLINGS       PTSUNNY   73  43  34 W12       29.85F
LIVINGSTON     PTCLDY    68  41  38 SW15G22   29.90F
MILES CITY     PTSUNNY   75  37  25 NW14G23   29.77S
* LAUREL APT   PTSUNNY   64  46  52 W5         N/A
* ROUNDUP APT  PTSUNNY   72  37  28 W11G22     N/A
* ALZADA       N/A       67  50  55 W6         N/A
* HYSHAM       N/A       72  37  28 N4G14      N/A
* LAME DEER    N/A       67  38  35 W9G14      N/A
* REED POINT   N/A       70  41  35 W18G26     N/A
* ROSCOE HILL  N/A       59  36  42 SE7        N/A
$$

REGIONAL REPORTS...DAKOTAS
CITY           SKY/WX    TMP DP  RH WIND       PRES   REMARKS
WILLISTON      PTSUNNY   75  48  39 CALM      29.68F
DICKINSON      PTSUNNY   72  52  49 NW6       29.71S
BEACH          N/A       73  46  38 NW10      29.74S
CROSBY         SUNNY     68  50  53 N8        29.70S
TIOGA          SUNNY     73  46  38 NW8       29.73S
WATFORD CITY   SUNNY     73  50  44 N7        29.68F
BISMARCK       PTSUNNY   75  55  50 NW7       29.69F
GRAND FORKS    PTSUNNY   73  61  66 W9        29.58R
FARGO          CLOUDY    73  63  71 W12       29.64R
BUFFALO SD     CLOUDY    70  46  42 CALM      29.72R
RAPID CITY     TSTM      57  54  90 N14       29.80R VSB 3
$$

REGIONAL REPORTS...WYOMING/IDAHO/WASHINGTON
CITY           SKY/WX    TMP DP  RH WIND       PRES   REMARKS
GILLETTE       CLOUDY    63  50  63 S6        29.86R
SHERIDAN       PTSUNNY   73  43  34 W14       29.86S
CODY           TSTM     N/A N/A N/A N/A        N/A
YELLOWSTONE LA PTSUNNY   48  43  83 VRB5      30.12S
SALMON         PTCLDY    68  43  40 N8        29.92F
MULLAN PASS    CLOUDY    45  43  93 CALM      30.05S
SAND POINT     CLOUDY    63  48  58 W8        29.95F
SPOKANE        CLOUDY    68  37  32 SW18      29.95F
$$

REGIONAL REPORTS...ALBERTA
CITY           SKY/WX    TMP DP  RH WIND       PRES   REMARKS
CALGARY        PTSUNNY   64  28  26 W7        29.80S
LETHBRIDGE     PTSUNNY   68  39  35 VRB13G18   29.81S
MEDICINE HAT   PTSUNNY   66  45  47 VRB6      29.78R
EDMONTON       PTCLDY    66  39  37 W14G23    29.75S
WATERTON GATE  N/A       64  36  35 SW13G21    N/A
CARDSTON       N/A       63  36  37 NW9G18     N/A
MILK RIVER     N/A       68  37  32 N9         N/A
$$

REGIONAL REPORTS...SASKATCHEWAN
CITY           SKY/WX    TMP DP  RH WIND       PRES   REMARKS
SWIFT CURRENT  PTSUNNY   70  39  32 N6        29.71R
REGINA         PTSUNNY   70  46  42 W5        29.69S
VAL MARIE      N/A       72  45  38 NW13       N/A
ASSINIBOIA     N/A       66  46  49 N9         N/A
CORONACH       N/A       64  52  65 W3         N/A

$$



USA.gov is the U.S. government's official web portal to all federal, state and local government web resources and services.